Location: Milton Keynes
(52.0316°N, 0.7531°W)
Time: 15:32:33
(UTC+01:00)

Envisat - Pass Details

Date: 01 February 2019
Orbit: 764 x 766 km, 98.2° (Epoch: 17 April)

Event Time Altitude Azimuth Distance (km) Brightness Sun altitude
Rises 05:58:35 0° 31° (NNE) 3,248 6.6 -16.2°
Reaches altitude 10° 06:02:59 10° 67° (ENE) 2,314 6.4 -15.5°
Maximum altitude 06:04:20 11° 82° (E) 2,245 6.6 -15.3°
Drops below altitude 10° 06:05:40 10° 98° (E) 2,309 6.9 -15.1°
Sets 06:10:01 0° 134° (SE) 3,227 7.2 -14.4°
